Location: Eaton Estates
(41.3089°N, 82.0057°W)
Time: 07:36:48
(UTC+00:00)

Cosmos 2369 Rocket - Pass Details

Date: 17 June 2021
Orbit: 827 x 854 km, 71.0° (Epoch: 27 July)

Event Time Altitude Azimuth Distance (km) Brightness Sun altitude
Rises 06:19:52 0° 340° (NNW) 3,431 6.3 -24.2°
Reaches altitude 10° 06:22:26 10° 346° (NNW) 2,492 5.5 -24.1°
Maximum altitude 06:27:59 50° 61° (ENE) 1,081 2.9 -23.9°
Enters shadow 06:31:26 22° 127° (SE) 1,766 3.6 -23.7°
